Location: Peebles
(55.6412°N, 3.1714°W)
Time: 19:33:49
(UTC+01:00)

Envisat - Pass Details

Date: 01 March 2024
Orbit: 762 x 764 km, 98.3° (Epoch: 20 April)

Event Time Altitude Azimuth Distance (km) Brightness Sun altitude
Rises 05:17:12 0° 11° (N) 3,246 6.5 -15.6°
Reaches altitude 10° 05:19:46 10° 1° (N) 2,316 5.6 -15.3°
Maximum altitude 05:24:04 29° 303° (WNW) 1,398 4.0 -14.7°
Enters shadow 05:26:04 22° 266° (W) 1,637 4.1 -14.4°
